EB5ETD Weather Reports


time (UTC)temp
C
wind
direction
speed
KPH
gust
KPH
rain 1hr
cm
rain 24hr
cm
rain mn
cm
humidity
%
barometer
mb
20260507131504 17 42 8.0 16.1 0.00 0.00 0.00 64 1017.5
20260507131004 17 27 9.7 14.5 0.00 0.03 0.00 63 1017.6
20260507130504 17 32 6.4 16.1 0.00 0.08 0.00 63 1017.7
20260507130004 17 34 8.0 16.1 0.00 0.10 0.00 63 1017.5
20260507125504 17 45 9.7 20.9 0.00 0.15 0.00 64 1017.8
20260507125004 17 47 9.7 20.9 0.00 0.23 0.00 63 1017.8
20260507124504 18 43 8.0 19.3 0.00 0.23 0.00 61 1017.5
20260507123503 17 42 9.7 20.9 0.00 0.23 0.00 61 1017.7
20260507123004 17 35 11.3 20.9 0.00 0.23 0.00 63 1017.8
20260507122504 17 37 8.0 20.9 0.00 0.23 0.00 64 1017.8
20260507122004 17 59 9.7 19.3 0.00 0.23 0.00 65 1018.0
20260507121004 18 49 8.0 20.9 0.00 0.23 0.00 63 1018.1
20260507120504 18 47 8.0 14.5 0.00 0.23 0.00 64 1018.0
20260507120005 18 44 12.9 22.5 0.00 0.23 0.00 65 1018.2
20260507115503 17 48 9.7 20.9 0.00 0.23 0.00 66 1018.2
20260507115004 17 37 8.0 16.1 0.00 0.23 0.00 67 1018.5
20260507114504 17 44 9.7 22.5 0.00 0.23 0.00 68 1018.7
20260507114004 16 23 8.0 14.5 0.00 0.23 0.00 70 1018.9
20260507113504 16 32 11.3 22.5 0.00 0.23 0.00 71 1018.8
20260507113004 16 49 8.0 16.1 0.00 0.23 0.00 69 1018.7
20260507112004 16 49 8.0 24.1 0.00 0.23 0.00 69 1019.2
20260507111506 16 49 9.7 16.1 0.00 0.23 0.00 69 1019.1
20260507110504 17 33 9.7 16.1 0.00 0.23 0.00 68 1018.9
20260507110004 17 39 8.0 20.9 0.00 0.23 0.00 68 1019.0
20260507105504 17 37 9.7 16.1 0.00 0.23 0.00 68 1019.2
20260507104504 16 42 6.4 14.5 0.00 0.23 0.00 71 1019.6
20260507104004 16 46 9.7 16.1 0.00 0.23 0.00 72 1019.6
20260507103503 16 48 8.0 16.1 0.00 0.23 0.00 73 1019.6
20260507103003 16 347 3.2 9.7 0.00 0.23 0.00 73 1019.6
20260507102504 16 39 3.2 8.0 0.00 0.23 0.00 74 1019.8
20260507102006 15 359 3.2 11.3 0.00 0.23 0.00 74 1019.7
20260507101506 16 53 4.8 9.7 0.00 0.23 0.00 73 1019.7
20260507101004 15 105 4.8 11.3 0.00 0.23 0.00 75 1019.7
20260507100504 15 42 4.8 11.3 0.00 0.23 0.00 76 1019.8
20260507095003 15 34 8.0 12.9 0.00 0.23 0.00 77 1020.3
20260507094504 15 38 6.4 11.3 0.00 0.23 0.00 77 1020.1
20260507094004 15 42 4.8 11.3 0.00 0.23 0.00 77 1020.3
20260507093037 15 46 6.4 12.9 0.00 0.23 0.00 76 1020.1
20260507092533 15 39 6.4 14.5 0.00 0.23 0.00 77 1020.0
20260507091036 15 42 3.2 11.3 0.00 0.23 0.00 78 1020.1
20260507090532 15 57 3.2 11.3 0.00 0.23 0.00 78 1020.2
20260507090033 15 40 3.2 9.7 0.00 0.23 0.00 78 1020.3
20260507085509 15 14 3.2 8.0 0.00 0.23 0.00 80 1020.4
20260507084504 14 36 8.0 14.5 0.00 0.23 0.00 80 1020.6
20260507084004 14 47 3.2 8.0 0.00 0.23 0.00 81 1020.4
20260507083503 14 25 4.8 12.9 0.00 0.23 0.00 81 1020.6
20260507083004 14 52 3.2 8.0 0.00 0.23 0.00 81 1020.4
20260507082504 14 58 4.8 9.7 0.00 0.23 0.00 81 1020.5
20260507081504 14 56 3.2 8.0 0.00 0.23 0.00 81 1020.4
20260507081004 14 34 4.8 11.3 0.00 0.23 0.00 81 1020.5
20260507080504 14 35 4.8 11.3 0.00 0.23 0.00 82 1020.4
20260507080004 14 48 4.8 11.3 0.00 0.23 0.00 84 1020.4
20260507075504 13 50 3.2 11.3 0.00 0.23 0.00 84 1020.2
20260507075004 13 50 3.2 9.7 0.00 0.23 0.00 85 1020.1
20260507074503 13 54 4.8 11.3 0.00 0.23 0.00 86 1020.3
20260507074004 13 47 1.6 4.8 0.00 0.23 0.00 87 1020.4
20260507072504 13 60 1.6 3.2 0.00 0.23 0.00 87 1020.6
20260507072004 12 7 0.0 3.2 0.00 0.23 0.00 88 1020.9
20260507071504 12 64 0.0 3.2 0.00 0.23 0.00 88 1020.7
20260507070504 12 81 1.6 3.2 0.00 0.23 0.00 88 1020.7
20260507065503 12 141 1.6 3.2 0.00 0.23 0.00 88 1020.7
20260507065003 12 187 0.0 1.6 0.00 0.23 0.00 89 1020.5
20260507064504 12 233 0.0 1.6 0.00 0.23 0.00 89 1020.7
20260507063004 11 244 1.6 3.2 0.00 0.23 0.00 89 1020.7
20260507062504 11 231 3.2 3.2 0.00 0.23 0.00 89 1020.7
20260507062004 11 220 0.0 3.2 0.00 0.23 0.00 90 1020.7
20260507061503 11 257 1.6 3.2 0.00 0.23 0.00 90 1020.8
20260507061004 11 290 0.0 1.6 0.00 0.23 0.00 91 1020.7
20260507060504 11 291 0.0 1.6 0.00 0.23 0.00 91 1020.6
20260507060004 11 291 1.6 3.2 0.00 0.23 0.00 91 1020.9
20260507055504 11 292 0.0 0.0 0.00 0.23 0.00 92 1020.8
20260507055004 11 293 0.0 0.0 0.00 0.23 0.00 92 1020.9
20260507054504 11 294 0.0 0.0 0.00 0.23 0.00 92 1020.7
20260507054004 10 294 0.0 0.0 0.00 0.23 0.00 93 1020.7
20260507053504 10 298 0.0 0.0 0.00 0.23 0.00 93 1020.8
20260507053004 10 298 0.0 0.0 0.00 0.23 0.00 93 1020.6
20260507052004 10 298 0.0 0.0 0.00 0.23 0.00 93 1020.4
20260507051505 10 294 0.0 0.0 0.00 0.23 0.00 93 1020.6
20260507051004 10 299 0.0 1.6 0.00 0.23 0.00 93 1020.6
20260507050504 10 293 1.6 3.2 0.00 0.23 0.00 94 1020.6
20260507050005 10 294 1.6 1.6 0.00 0.23 0.00 94 1020.4
20260507045504 10 295 0.0 1.6 0.00 0.23 0.00 94 1020.5
20260507045004 10 295 0.0 1.6 0.00 0.23 0.00 94 1020.4
20260507044004 10 295 1.6 3.2 0.00 0.23 0.00 94 1020.5
20260507043004 10 25 0.0 1.6 0.00 0.23 0.00 94 1020.5
20260507042503 10 25 0.0 1.6 0.00 0.23 0.00 94 1020.6
20260507042004 10 25 0.0 1.6 0.00 0.23 0.00 94 1020.4
20260507041504 10 25 0.0 1.6 0.00 0.23 0.00 94 1020.6
20260507041004 10 25 3.2 3.2 0.00 0.23 0.00 94 1020.5
20260507040504 10 25 1.6 3.2 0.00 0.23 0.00 94 1020.3
20260507040004 10 25 0.0 0.0 0.00 0.23 0.00 94 1020.3
20260507035504 10 25 0.0 0.0 0.00 0.23 0.00 93 1020.4
20260507035004 10 25 0.0 0.0 0.00 0.23 0.00 93 1020.3
20260507034503 10 25 1.6 1.6 0.00 0.23 0.00 93 1020.3
20260507034004 10 25 0.0 3.2 0.00 0.23 0.00 93 1020.5
20260507033504 10 25 0.0 0.0 0.00 0.23 0.00 93 1020.2
20260507033003 10 25 0.0 0.0 0.00 0.23 0.00 93 1020.3
20260507032504 10 25 0.0 0.0 0.00 0.23 0.00 93 1020.3
20260507032004 10 25 0.0 0.0 0.00 0.23 0.00 93 1020.2
20260507031504 10 25 0.0 0.0 0.00 0.23 0.00 92 1020.3
20260507030504 11 25 0.0 0.0 0.00 0.23 0.00 92 1020.4
20260507030004 11 25 0.0 0.0 0.00 0.23 0.00 92 1020.4
20260507025504 11 25 0.0 1.6 0.00 0.23 0.00 92 1020.3
20260507025003 11 25 0.0 0.0 0.00 0.23 0.00 92 1020.3
20260507024004 11 25 0.0 1.6 0.00 0.23 0.00 92 1020.4
20260507023004 11 26 0.0 1.6 0.00 0.23 0.00 92 1020.4
20260507022504 11 26 0.0 1.6 0.00 0.23 0.00 92 1020.6
20260507022004 11 26 1.6 1.6 0.00 0.23 0.00 92 1020.6
20260507021504 11 26 0.0 0.0 0.00 0.23 0.00 92 1020.6
20260507020503 11 26 0.0 0.0 0.00 0.23 0.00 92 1020.6
20260507020004 11 26 0.0 0.0 0.00 0.23 0.00 92 1020.8
20260507015503 11 26 0.0 0.0 0.00 0.23 0.00 92 1020.7
20260507015004 11 26 0.0 0.0 0.00 0.23 0.00 92 1020.7
20260507014503 11 26 0.0 1.6 0.00 0.23 0.00 92 1020.6
20260507013503 11 26 1.6 3.2 0.00 0.23 0.00 92 1020.8
20260507012505 10 26 0.0 1.6 0.00 0.23 0.00 92 1020.8
20260507012004 10 26 0.0 0.0 0.00 0.23 0.00 92 1020.9
20260507011504 10 26 0.0 1.6 0.00 0.23 0.00 92 1021.1
20260507005504 10 26 0.0 1.6 0.00 0.23 0.00 93 1020.9
20260507005004 10 26 0.0 0.0 0.00 0.23 0.00 93 1020.8
20260507004504 10 26 0.0 1.6 0.00 0.23 0.00 93 1020.9
20260507004004 11 26 0.0 1.6 0.00 0.23 0.00 93 1020.9
20260507003504 11 26 0.0 1.6 0.00 0.23 0.00 93 1020.9
20260507003004 11 26 0.0 1.6 0.00 0.23 0.00 93 1020.9
20260507002504 11 26 0.0 0.0 0.00 0.23 0.00 93 1021.1
20260507002004 11 26 0.0 0.0 0.00 0.23 0.00 93 1021.0
20260507001504 11 26 0.0 0.0 0.00 0.23 0.00 93 1021.0
20260507001003 11 27 0.0 1.6 0.00 0.23 0.00 92 1021.1
20260507000004 11 26 0.0 0.0 0.00 0.23 0.00 92 1020.9
20260506235503 11 26 0.0 0.0 0.00 0.23 0.00 92 1021.2
20260506235004 11 26 0.0 1.6 0.00 0.23 0.00 92 1021.0
20260506234504 11 26 0.0 1.6 0.00 0.23 0.00 92 1021.0
20260506234003 11 26 0.0 0.0 0.00 0.23 0.00 92 1021.0
20260506233503 11 26 0.0 0.0 0.00 0.23 0.00 92 1020.9
20260506233004 11 26 0.0 1.6 0.00 0.23 0.00 91 1021.1
20260506232504 11 27 1.6 1.6 0.00 0.23 0.00 91 1021.0
20260506232004 11 27 0.0 1.6 0.00 0.23 0.00 91 1021.1
20260506231504 11 26 0.0 0.0 0.00 0.23 0.00 91 1021.1
20260506231003 11 26 0.0 1.6 0.00 0.23 0.00 91 1020.9
20260506225503 11 27 1.6 3.2 0.00 0.23 0.00 90 1020.9
20260506224503 11 27 0.0 1.6 0.00 0.23 0.00 90 1021.2
20260506224003 11 27 0.0 0.0 0.00 0.23 0.00 90 1021.3
20260506222004 12 27 1.6 1.6 0.00 0.23 0.00 89 1021.1
20260506221504 12 27 1.6 1.6 0.00 0.23 0.00 89 1021.1
20260506221004 12 27 0.0 1.6 0.00 0.23 0.00 89 1021.0
20260506220004 12 27 0.0 3.2 0.00 0.23 0.00 89 1021.2
20260506215504 12 27 0.0 1.6 0.00 0.23 0.23 89 1021.2
20260506215004 12 27 0.0 0.0 0.00 0.23 0.23 89 1021.1
20260506214504 12 27 0.0 1.6 0.00 0.23 0.23 89 1020.9
20260506214004 12 27 0.0 1.6 0.00 0.23 0.23 89 1021.0
20260506213504 12 27 0.0 1.6 0.00 0.23 0.23 89 1021.1
20260506212003 12 28 0.0 1.6 0.00 0.23 0.23 89 1020.9
20260506211503 12 28 1.6 1.6 0.00 0.23 0.23 89 1021.0
20260506211005 12 28 0.0 3.2 0.00 0.23 0.23 89 1020.9
20260506210504 12 28 0.0 1.6 0.00 0.23 0.23 90 1021.1
20260506204504 12 28 0.0 1.6 0.00 0.23 0.23 89 1020.5
20260506204004 12 28 0.0 1.6 0.00 0.23 0.23 89 1020.2
20260506203504 12 28 0.0 1.6 0.00 0.23 0.23 88 1020.1
20260506203004 12 28 0.0 1.6 0.00 0.23 0.23 88 1020.1
20260506202504 13 28 1.6 1.6 0.00 0.23 0.23 88 1019.9
20260506202004 12 28 1.6 1.6 0.00 0.23 0.23 88 1020.0
20260506201504 12 28 0.0 0.0 0.00 0.23 0.23 88 1019.8
20260506201004 12 28 1.6 3.2 0.00 0.23 0.23 88 1019.6
20260506200504 12 28 0.0 1.6 0.00 0.23 0.23 88 1019.6
20260506200004 12 28 0.0 0.0 0.00 0.23 0.23 88 1019.5
20260506195503 13 28 0.0 0.0 0.00 0.23 0.23 88 1019.6
20260506195003 13 28 0.0 1.6 0.00 0.23 0.23 88 1019.4
20260506194004 13 28 0.0 3.2 0.00 0.23 0.23 87 1019.3
20260506193504 13 28 0.0 3.2 0.00 0.23 0.23 86 1019.1
20260506192504 13 28 1.6 1.6 0.00 0.23 0.23 86 1019.1
20260506192004 13 28 1.6 4.8 0.00 0.23 0.23 85 1019.0
20260506191504 13 41 1.6 3.2 0.00 0.23 0.23 85 1019.2
20260506191004 13 49 1.6 4.8 0.00 0.23 0.23 85 1019.0
20260506190504 14 58 3.2 4.8 0.00 0.23 0.23 84 1018.9
20260506190003 14 52 3.2 8.0 0.00 0.23 0.23 83 1018.8
20260506185503 14 51 4.8 9.7 0.00 0.23 0.23 83 1018.7
20260506185004 14 38 4.8 9.7 0.00 0.23 0.23 83 1018.7
20260506184004 14 37 3.2 8.0 0.00 0.23 0.23 82 1018.7
20260506183503 15 50 4.8 8.0 0.00 0.23 0.23 81 1018.4
20260506183005 15 44 3.2 4.8 0.00 0.23 0.23 81 1018.3
20260506182504 15 29 3.2 8.0 0.00 0.23 0.23 81 1018.3
20260506181504 15 49 4.8 8.0 0.00 0.23 0.23 81 1018.4
20260506181004 15 50 4.8 9.7 0.00 0.23 0.23 80 1018.2
20260506180503 15 32 4.8 11.3 0.00 0.23 0.23 80 1018.2
20260506180005 15 43 4.8 9.7 0.00 0.23 0.23 79 1018.1
20260506175504 15 51 4.8 8.0 0.00 0.23 0.23 78 1017.9
20260506175004 16 40 4.8 11.3 0.00 0.23 0.23 77 1017.9
20260506174503 16 48 4.8 11.3 0.00 0.23 0.23 76 1018.0
20260506174004 16 48 3.2 4.8 0.00 0.23 0.23 76 1018.0
20260506173503 16 42 3.2 4.8 0.00 0.23 0.23 76 1018.0
20260506173004 16 37 0.0 4.8 0.00 0.23 0.23 76 1018.0
20260506172504 16 38 3.2 8.0 0.00 0.23 0.23 76 1017.9
20260506172004 16 42 4.8 9.7 0.00 0.23 0.23 76 1018.0
20260506171504 16 51 4.8 8.0 0.00 0.23 0.23 76 1018.0
20260506171003 16 48 4.8 8.0 0.00 0.23 0.23 74 1017.9
20260506170504 16 33 1.6 4.8 0.00 0.23 0.23 71 1018.0
20260506170004 16 46 3.2 4.8 0.00 0.23 0.23 71 1017.8
20260506165503 16 43 3.2 8.0 0.00 0.23 0.23 70 1018.0
20260506164503 16 70 1.6 4.8 0.00 0.23 0.23 69 1017.9
20260506164004 16 59 3.2 12.9 0.00 0.23 0.23 70 1017.9
20260506163004 16 85 3.2 9.7 0.00 0.23 0.23 71 1018.0
20260506162504 16 38 3.2 9.7 0.00 0.23 0.23 72 1018.1
20260506162003 16 38 1.6 9.7 0.00 0.23 0.23 72 1017.8
20260506161504 16 45 3.2 9.7 0.00 0.23 0.23 71 1017.8
20260506161004 16 32 3.2 4.8 0.00 0.23 0.23 69 1017.8
20260506160503 16 51 3.2 4.8 0.00 0.23 0.23 68 1017.7
20260506160004 16 54 3.2 9.7 0.00 0.23 0.23 68 1018.0
20260506155004 16 57 4.8 11.3 0.00 0.23 0.23 74 1018.0
20260506154503 16 60 6.4 9.7 0.00 0.23 0.23 73 1017.7
20260506154004 16 236 1.6 9.7 0.00 0.23 0.23 71 1017.7
20260506153504 16 212 4.8 8.0 0.00 0.23 0.23 71 1017.8
20260506153004 16 222 3.2 4.8 0.00 0.23 0.23 70 1017.8
20260506152504 16 251 1.6 3.2 0.00 0.23 0.23 69 1018.0
20260506152004 16 258 1.6 3.2 0.00 0.23 0.23 70 1017.8
20260506151503 16 231 0.0 4.8 0.00 0.23 0.23 70 1018.2
20260506151004 16 243 1.6 4.8 0.00 0.23 0.23 70 1018.0
20260506150504 16 56 3.2 8.0 0.00 0.23 0.23 69 1017.9
20260506150004 17 255 0.0 3.2 0.00 0.23 0.23 68 1017.7
20260506145504 17 46 1.6 4.8 0.00 0.23 0.23 68 1017.9
20260506145004 16 250 0.0 4.8 0.00 0.23 0.23 72 1017.8
20260506144503 16 349 3.2 9.7 0.00 0.23 0.23 73 1018.3
20260506144004 15 294 1.6 4.8 0.00 0.23 0.23 75 1018.3
20260506143004 15 50 4.8 9.7 0.00 0.23 0.23 76 1018.7
20260506142004 15 33 3.2 8.0 0.00 0.23 0.23 77 1018.9
20260506141503 15 48 3.2 8.0 0.00 0.23 0.23 78 1019.1
20260506141004 14 48 4.8 12.9 0.03 0.23 0.23 78 1019.0
20260506140504 15 74 1.6 4.8 0.08 0.23 0.23 80 1019.1
20260506140004 14 57 1.6 9.7 0.10 0.23 0.23 83 1019.2
20260506135504 13 17 4.8 9.7 0.15 0.23 0.23 86 1019.5
20260506135004 13 49 3.2 9.7 0.23 0.23 0.23 89 1019.5
20260506134504 13 39 4.8 11.3 0.23 0.23 0.23 90 1019.6
20260506134003 13 93 1.6 8.0 0.23 0.23 0.23 90 1019.6
20260506133504 13 47 3.2 8.0 0.23 0.23 0.23 91 1019.6
20260506133004 13 49 4.8 9.7 0.23 0.23 0.23 90 1019.8